PTERI SSFB-SSMR

Flight info

Callsign PTERI
Flight time 0h 35m
Altitude 7000
Route 253718S0523721W 252312S0522410W 245931S0515914W DCT 244542S0514602W
Aircraft BE58/L-SDFGRY/C

Departure

Time 2026-04-29 19:31
Airport Paulo Abdala Airport (SSFB)

Arrival

Time 2026-04-29 20:07
Airport Manoel Ribas Airport (SSMR)
Time Latitude Longitude Altitude Speed Heading
2026-04-29 19:25 -26.05923 -53.06607 2109 ft 0 kts 26°
2026-04-29 19:28 -26.05923 -53.06595 2106 ft 7 kts 146°
2026-04-29 19:29 -26.06015 -53.06575 2106 ft 20 kts 129°
2026-04-29 19:29 -26.05953 -53.06413 2101 ft 26 kts 60°
2026-04-29 19:29 -26.05853 -53.06235 2098 ft 29 kts 56°
2026-04-29 19:29 -26.05750 -53.06037 2098 ft 30 kts 60°
2026-04-29 19:30 -26.05691 -53.05923 2099 ft 7 kts 327°
2026-04-29 19:30 -26.05711 -53.05955 2099 ft 0 kts 238°
2026-04-29 19:30 -26.05827 -53.06179 2097 ft 81 kts 239°
2026-04-29 19:31 -26.06220 -53.06908 2247 ft 128 kts 238°
2026-04-29 19:31 -26.06647 -53.07879 2471 ft 149 kts 263°
2026-04-29 19:31 -26.06322 -53.08977 2696 ft 159 kts 312°
2026-04-29 19:31 -26.05309 -53.09421 3007 ft 164 kts 358°
2026-04-29 19:32 -26.04245 -53.08960 3320 ft 171 kts 38°
2026-04-29 19:32 -26.03396 -53.08031 3625 ft 172 kts 42°
2026-04-29 19:32 -26.02563 -53.07083 3924 ft 172 kts 42°
2026-04-29 19:32 -26.01721 -53.06138 4223 ft 173 kts 41°
2026-04-29 19:33 -26.00881 -53.05198 4512 ft 174 kts 40°
2026-04-29 19:33 -26.00040 -53.04252 4826 ft 172 kts 40°
2026-04-29 19:33 -25.99177 -53.03294 5107 ft 177 kts 40°
2026-04-29 19:33 -25.98304 -53.02324 5393 ft 177 kts 40°
2026-04-29 19:34 -25.97440 -53.01354 5679 ft 175 kts 38°
2026-04-29 19:34 -25.96575 -53.00408 5968 ft 174 kts 38°
2026-04-29 19:34 -25.95719 -52.99447 6273 ft 176 kts 39°
2026-04-29 19:34 -25.94847 -52.98480 6558 ft 177 kts 37°
2026-04-29 19:35 -25.93979 -52.97518 6843 ft 175 kts 39°
2026-04-29 19:35 -25.93128 -52.96559 7113 ft 172 kts 38°
2026-04-29 19:35 -25.92284 -52.95634 7386 ft 169 kts 37°
2026-04-29 19:35 -25.91442 -52.94693 7522 ft 179 kts 38°
2026-04-29 19:36 -25.90540 -52.93684 7541 ft 188 kts 37°
2026-04-29 19:36 -25.89590 -52.92606 7531 ft 200 kts 39°
2026-04-29 19:36 -25.88591 -52.91519 7530 ft 202 kts 37°
2026-04-29 19:36 -25.87607 -52.90436 7529 ft 198 kts 38°
2026-04-29 19:37 -25.86632 -52.89345 7532 ft 199 kts 38°
2026-04-29 19:37 -25.85985 -52.88623 7534 ft 200 kts 38°
2026-04-29 19:37 -25.84671 -52.87170 7533 ft 200 kts 38°
2026-04-29 19:37 -25.83671 -52.86083 7526 ft 203 kts 38°
2026-04-29 19:38 -25.82669 -52.84958 7529 ft 207 kts 39°
2026-04-29 19:38 -25.81650 -52.83811 7533 ft 210 kts 39°
2026-04-29 19:38 -25.80614 -52.82658 7532 ft 213 kts 38°
2026-04-29 19:38 -25.79557 -52.81488 7529 ft 214 kts 39°
2026-04-29 19:39 -25.78504 -52.80321 7532 ft 214 kts 39°
2026-04-29 19:39 -25.77450 -52.79154 7531 ft 214 kts 39°
2026-04-29 19:39 -25.76396 -52.77985 7531 ft 214 kts 39°
2026-04-29 19:39 -25.75343 -52.76818 7532 ft 214 kts 39°
2026-04-29 19:40 -25.74290 -52.75652 7529 ft 214 kts 38°
2026-04-29 19:40 -25.73237 -52.74488 7529 ft 214 kts 39°
2026-04-29 19:40 -25.72180 -52.73319 7529 ft 215 kts 39°
2026-04-29 19:40 -25.71125 -52.72150 7529 ft 214 kts 39°
2026-04-29 19:41 -25.70069 -52.70982 7528 ft 215 kts 39°
2026-04-29 19:41 -25.69014 -52.69816 7529 ft 215 kts 39°
2026-04-29 19:41 -25.67954 -52.68643 7529 ft 215 kts 39°
2026-04-29 19:41 -25.66896 -52.67474 7529 ft 215 kts 39°
2026-04-29 19:42 -25.65837 -52.66306 7529 ft 215 kts 39°
2026-04-29 19:42 -25.65138 -52.65533 7526 ft 214 kts 39°
2026-04-29 19:42 -25.63723 -52.63970 7531 ft 216 kts 39°
2026-04-29 19:42 -25.62653 -52.62792 7533 ft 218 kts 39°
2026-04-29 19:43 -25.61541 -52.61661 7535 ft 217 kts 33°
2026-04-29 19:43 -25.60369 -52.60581 7525 ft 220 kts 34°
2026-04-29 19:43 -25.59208 -52.59474 7521 ft 221 kts 35°
2026-04-29 19:43 -25.58039 -52.58376 7523 ft 220 kts 34°
2026-04-29 19:44 -25.56864 -52.57295 7526 ft 219 kts 33°
2026-04-29 19:44 -25.55714 -52.56192 7524 ft 219 kts 34°
2026-04-29 19:44 -25.54546 -52.55122 7523 ft 218 kts 34°
2026-04-29 19:44 -25.53390 -52.54039 7515 ft 218 kts 34°
2026-04-29 19:45 -25.52245 -52.52948 7519 ft 217 kts 34°
2026-04-29 19:45 -25.51093 -52.51866 7526 ft 217 kts 33°
2026-04-29 19:45 -25.49925 -52.50790 7530 ft 219 kts 34°
2026-04-29 19:45 -25.48770 -52.49709 7532 ft 221 kts 35°
2026-04-29 19:46 -25.47590 -52.48608 7514 ft 222 kts 34°
2026-04-29 19:46 -25.46416 -52.47525 7518 ft 219 kts 34°
2026-04-29 19:46 -25.45257 -52.46443 7515 ft 217 kts 34°
2026-04-29 19:46 -25.44110 -52.45362 7515 ft 215 kts 34°
2026-04-29 19:47 -25.42970 -52.44293 7520 ft 214 kts 34°
2026-04-29 19:47 -25.41832 -52.43232 7518 ft 215 kts 34°
2026-04-29 19:47 -25.40690 -52.42165 7519 ft 214 kts 35°
2026-04-29 19:47 -25.39556 -52.41108 7519 ft 213 kts 34°
2026-04-29 19:48 -25.38433 -52.40038 7520 ft 214 kts 38°
2026-04-29 19:48 -25.37725 -52.39273 7518 ft 215 kts 38°
2026-04-29 19:48 -25.36275 -52.37744 7515 ft 215 kts 38°
2026-04-29 19:48 -25.35195 -52.36608 7522 ft 214 kts 38°
2026-04-29 19:49 -25.34119 -52.35472 7522 ft 214 kts 38°
2026-04-29 19:49 -25.33047 -52.34339 7520 ft 214 kts 38°
2026-04-29 19:49 -25.31968 -52.33199 7523 ft 214 kts 38°
2026-04-29 19:49 -25.30896 -52.32066 7527 ft 213 kts 38°
2026-04-29 19:50 -25.29825 -52.30937 7525 ft 213 kts 38°
2026-04-29 19:50 -25.28753 -52.29805 7525 ft 213 kts 37°
2026-04-29 19:50 -25.27681 -52.28674 7525 ft 213 kts 37°
2026-04-29 19:50 -25.26610 -52.27545 7527 ft 214 kts 38°
2026-04-29 19:51 -25.25534 -52.26409 7527 ft 213 kts 37°
2026-04-29 19:51 -25.24465 -52.25282 7527 ft 212 kts 38°
2026-04-29 19:51 -25.23395 -52.24154 7535 ft 213 kts 37°
2026-04-29 19:51 -25.22305 -52.23010 7548 ft 219 kts 37°
2026-04-29 19:52 -25.21203 -52.21846 7543 ft 220 kts 38°
2026-04-29 19:52 -25.20090 -52.20678 7528 ft 220 kts 38°
2026-04-29 19:52 -25.18991 -52.19509 7528 ft 218 kts 38°
2026-04-29 19:52 -25.17904 -52.18371 7527 ft 213 kts 37°
2026-04-29 19:53 -25.16829 -52.17249 7538 ft 214 kts 37°
2026-04-29 19:53 -25.15748 -52.16098 7548 ft 218 kts 37°
2026-04-29 19:53 -25.14644 -52.14934 7537 ft 223 kts 37°
2026-04-29 19:53 -25.13509 -52.13752 7521 ft 223 kts 38°
2026-04-29 19:54 -25.11311 -52.11443 7531 ft 216 kts 37°
2026-04-29 19:54 -25.10242 -52.10314 7529 ft 216 kts 37°
2026-04-29 19:54 -25.09159 -52.09173 7545 ft 216 kts 36°
2026-04-29 19:55 -25.08072 -52.08031 7531 ft 217 kts 37°
2026-04-29 19:55 -25.06973 -52.06890 7525 ft 215 kts 37°
2026-04-29 19:55 -25.05895 -52.05752 7533 ft 215 kts 38°
2026-04-29 19:55 -25.04820 -52.04619 7526 ft 213 kts 37°
2026-04-29 19:56 -25.03748 -52.03495 7529 ft 212 kts 37°
2026-04-29 19:56 -25.02677 -52.02374 7527 ft 212 kts 37°
2026-04-29 19:56 -25.01609 -52.01255 7529 ft 211 kts 37°
2026-04-29 19:56 -25.00544 -52.00139 7528 ft 212 kts 37°
2026-04-29 19:57 -24.99471 -51.99014 7526 ft 213 kts 37°
2026-04-29 19:57 -24.98730 -51.98283 7529 ft 210 kts 33°
2026-04-29 19:57 -24.97265 -51.96890 7530 ft 210 kts 35°
2026-04-29 19:57 -24.96166 -51.95822 7527 ft 211 kts 35°
2026-04-29 19:58 -24.95056 -51.94759 7527 ft 211 kts 34°
2026-04-29 19:58 -24.93952 -51.93703 7529 ft 210 kts 34°
2026-04-29 19:58 -24.92849 -51.92651 7533 ft 211 kts 34°
2026-04-29 19:58 -24.91743 -51.91592 7535 ft 211 kts 35°
2026-04-29 19:59 -24.90629 -51.90525 7542 ft 213 kts 34°
2026-04-29 19:59 -24.89496 -51.89447 7545 ft 217 kts 35°
2026-04-29 19:59 -24.88351 -51.88351 7531 ft 217 kts 34°
2026-04-29 19:59 -24.87210 -51.87260 7530 ft 218 kts 34°
2026-04-29 20:00 -24.86071 -51.86170 7526 ft 216 kts 35°
2026-04-29 20:00 -24.84925 -51.85082 7549 ft 221 kts 34°
2026-04-29 20:00 -24.84151 -51.84345 7526 ft 223 kts 36°
2026-04-29 20:00 -24.82991 -51.83226 7518 ft 219 kts 36°
2026-04-29 20:01 -24.81851 -51.82136 7525 ft 215 kts 35°
2026-04-29 20:01 -24.80727 -51.81066 7524 ft 213 kts 34°
2026-04-29 20:01 -24.79610 -51.80009 7538 ft 211 kts 34°
2026-04-29 20:01 -24.78476 -51.78931 7323 ft 218 kts 35°
2026-04-29 20:02 -24.77346 -51.77848 7118 ft 215 kts 35°
2026-04-29 20:02 -24.76205 -51.76798 6903 ft 211 kts 28°
2026-04-29 20:02 -24.74920 -51.76096 6694 ft 205 kts 17°
2026-04-29 20:02 -24.74053 -51.75677 6563 ft 205 kts 18°
2026-04-29 20:03 -24.72313 -51.74803 6271 ft 206 kts 19°
2026-04-29 20:03 -24.71012 -51.74147 6046 ft 206 kts 19°
2026-04-29 20:03 -24.69711 -51.73496 5830 ft 206 kts 19°
2026-04-29 20:03 -24.68403 -51.72847 5609 ft 206 kts 18°
2026-04-29 20:04 -24.67101 -51.72201 5391 ft 205 kts 19°
2026-04-29 20:04 -24.65799 -51.71551 5173 ft 205 kts 19°
2026-04-29 20:04 -24.64497 -51.70901 4959 ft 206 kts 20°
2026-04-29 20:04 -24.63214 -51.70260 4744 ft 205 kts 20°
2026-04-29 20:05 -24.61902 -51.69605 4515 ft 204 kts 20°
2026-04-29 20:05 -24.60623 -51.68971 4292 ft 204 kts 20°
2026-04-29 20:05 -24.59336 -51.68331 4078 ft 202 kts 21°
2026-04-29 20:05 -24.58059 -51.67697 3858 ft 201 kts 21°
2026-04-29 20:06 -24.56898 -51.66896 3623 ft 193 kts 42°
2026-04-29 20:06 -24.56026 -51.65852 3513 ft 170 kts 46°
2026-04-29 20:06 -24.55336 -51.65006 3493 ft 131 kts 41°
2026-04-29 20:06 -24.54654 -51.64555 3292 ft 103 kts 18°
2026-04-29 20:07 -24.53975 -51.64530 3051 ft 93 kts 328°
2026-04-29 20:07 -24.53450 -51.64898 2884 ft 88 kts 333°
2026-04-29 20:07 -24.53081 -51.65088 2881 ft 17 kts 334°
2026-04-29 20:07 -24.53083 -51.65093 2881 ft 14 kts 153°
2026-04-29 20:08 -24.53209 -51.65038 2879 ft 22 kts 200°
2026-04-29 20:08 -24.53241 -51.65096 2880 ft 11 kts 243°
2026-04-29 20:08 -24.53306 -51.65125 2880 ft 1 kts 240°
2026-04-29 20:08 -24.53309 -51.65130 2880 ft 0 kts 240°